Voltar ao catálogo

STARLINK-33578

AtivoComunicaçõesVLEO
NORAD 63368·PAYLOAD·🇺🇸 United States

Lançado Mar 26, 2025 de Vandenberg Space Force Base

Loading…

Próximas Passagens (próximas 24 horas)

TLE

AtualizadoSource: CelesTrak SupGP

Época: Sep 14, 2026, 14:52 UTC

1 63368C 25063F   26257.61993056 -.00029536  00000+0 -87291-3 0  2576
2 63368  53.1572 249.3375 0001370  88.4745 283.8993 15.34396080    13

Acompanhe STARLINK-33578 em tempo real com AllMySat

Download on the App Store